Location: Bon Acre
(42.6442°N, 73.5758°W)
Time: 02:19:14
(UTC+00:00)

SL-08 R/B - Pass Details

Date: 12 March 2026
Orbit: 946 x 992 km, 83.0° (Epoch: 13 April)

Event Time Altitude Azimuth Distance (km) Brightness Sun altitude
Exits shadow 03:03:10 22° 341° (NNW) 1,933 6.4 -42.4°
Drops below altitude 10° 03:05:29 10° 354° (N) 2,676 7.2 -42.7°
Sets 03:08:08 0° 2° (N) 3,624 8.0 -43.0°
